WBANNO,USDM_WEEK,LONGITUDE,LATITUDE,SMVWC_5_CM_MEAN,SMANOM_5_CM_MEAN,SMPERC_5_CM_30COUNTS,SMPERC_5_CM_70COUNTS,SMVWC_10_CM_MEAN,SMANOM_10_CM_MEAN,SMPERC_10_CM_30COUNTS,SMPERC_10_CM_70COUNTS,SMVWC_20_CM_MEAN,SMANOM_20_CM_MEAN,SMPERC_20_CM_30COUNTS,SMPERC_20_CM_70COUNTS,SMVWC_50_CM_MEAN,SMANOM_50_CM_MEAN,SMPERC_50_CM_30COUNTS,SMPERC_50_CM_70COUNTS,SMVWC_100_CM_MEAN,SMANOM_100_CM_MEAN,SMPERC_100_CM_30COUNTS,SMPERC_100_CM_70COUNTS,SMVWC_TOP_CM_MEAN,SMANOM_TOP_CM_MEAN,SMPERC_TOP_CM_30COUNTS,SMPERC_TOP_CM_70COUNTS,SMVWC_COLUMN_CM_MEAN,SMANOM_COLUMN_CM_MEAN,SMPERC_COLUMN_CM_30COUNTS,SMPERC_COLUMN_CM_70COUNTS
63849,20090715,-86.23,37.25,,,,,,,,,,,,,,,,,,,,,,,,,,,,
63849,20090716,-86.23,37.25,,,,,,,,,,,,,,,,,,,,,,,,,,,,
63849,20090717,-86.23,37.25,,,,,,,,,,,,,,,,,,,,,,,,,,,,
63849,20090718,-86.23,37.25,,,,,,,,,,,,,,,,,,,,,,,,,,,,
63849,20090719,-86.23,37.25,,,,,,,,,,,,,,,,,,,,,,,,,,,,
63849,20090720,-86.23,37.25,0.248,-0.34,0.444,0.022,0.23,-0.28,0.452,0.059,0.232,-0.33,0.459,0,0.316,-0.22,0,0,0.402,,,,0.239,-0.31,0.452,0.037,0.286,,,
63849,20090721,-86.23,37.25,0.248,-0.34,0.377,0.019,0.231,-0.26,0.384,0.05,0.233,-0.32,0.39,0,0.317,-0.23,0,0,0.402,,,,0.239,-0.3,0.384,0.031,0.286,,,
63849,20090722,-86.23,37.25,0.25,-0.31,0.268,0.018,0.233,-0.23,0.274,0.048,0.235,-0.3,0.28,0,0.317,-0.24,0,0,0.403,,,,0.241,-0.27,0.274,0.03,0.288,,,
63849,20090723,-86.23,37.25,0.265,-0.14,0.125,0.149,0.249,-0.04,0.131,0.179,0.245,-0.2,0.137,0.06,0.32,-0.21,0,0,0.404,,,,0.257,-0.1,0.131,0.161,0.297,,,
63849,20090724,-86.23,37.25,0.275,-0.03,0,0.22,0.262,0.11,0,0.315,0.254,-0.11,0,0.06,0.325,-0.17,0,0,0.408,,,,0.268,0.03,0,0.298,0.305,,,
63849,20090725,-86.23,37.25,0.275,-0.01,0,0.208,0.263,0.14,0,0.417,0.257,-0.08,0,0.06,0.33,-0.12,0,0,0.411,,,,0.269,0.06,0,0.369,0.307,,,
63849,20090726,-86.23,37.25,0.278,0.03,0,0.208,0.266,0.19,0,0.56,0.26,-0.04,0,0.06,0.334,-0.07,0,0,0.414,,,,0.272,0.1,0,0.375,0.311,,,
63849,20090727,-86.23,37.25,0.281,0.07,0,0.208,0.269,0.23,0,0.577,0.263,-0.01,0,0.06,0.338,-0.03,0,0,0.417,,,,0.275,0.14,0,0.375,0.314,,,
63849,20090728,-86.23,37.25,0.283,0.11,0,0.208,0.271,0.27,0,0.577,0.266,0.02,0,0.06,0.341,0.01,0,0,0.42,,,,0.277,0.18,0,0.375,0.316,,,
63849,20090729,-86.23,37.25,0.287,0.15,0,0.208,0.275,0.32,0,0.577,0.269,0.06,0,0.06,0.344,0.04,0,0,0.423,,,,0.281,0.22,0,0.375,0.319,,,
63849,20090730,-86.23,37.25,0.28,0.09,0,0.095,0.267,0.24,0,0.446,0.266,0.04,0,0,0.343,0.04,0,0,0.426,,,,0.274,0.16,0,0.244,0.316,,,
63849,20090731,-86.23,37.25,0.282,0.13,0,0.065,0.266,0.24,0,0.345,0.265,0.04,0,0.036,0.343,0.04,0,0.03,0.427,,,,0.274,0.17,0,0.143,0.317,,,
63849,20090801,-86.23,37.25,0.286,0.17,0,0.208,0.269,0.28,0,0.345,0.267,0.07,0,0.179,0.345,0.09,0,0.173,0.428,,,,0.278,0.21,0,0.19,0.319,,,
63849,20090802,-86.23,37.25,0.29,0.21,0,0.345,0.272,0.31,0,0.345,0.269,0.1,0,0.286,0.347,0.14,0,0.298,0.429,,,,0.281,0.24,0,0.327,0.321,,,
63849,20090803,-86.23,37.25,0.293,0.26,0,0.435,0.275,0.36,0,0.47,0.271,0.13,0,0.333,0.35,0.19,0,0.435,0.43,,,,0.284,0.28,0,0.47,0.324,,,
63849,20090804,-86.23,37.25,0.296,0.3,0,0.435,0.279,0.41,0,0.613,0.273,0.16,0,0.333,0.353,0.26,0,0.577,0.431,,,,0.288,0.32,0,0.512,0.327,,,
63849,20090805,-86.23,37.25,0.303,0.37,0,0.524,0.286,0.49,0,0.72,0.275,0.19,0,0.375,0.357,0.33,0,0.689,0.432,,,,0.294,0.39,0,0.601,0.331,,,
63849,20090806,-86.23,37.25,0.308,0.42,0,0.649,0.292,0.56,0,0.863,0.279,0.23,0,0.494,0.362,0.4,0,0.813,0.433,,,,0.3,0.45,0,0.744,0.335,,,
63849,20090807,-86.23,37.25,0.306,0.39,0,0.661,0.293,0.56,0,0.964,0.28,0.24,0,0.464,0.365,0.46,0,0.929,0.434,,,,0.299,0.44,0,0.845,0.335,,,
63849,20090808,-86.23,37.25,0.302,0.35,0,0.518,0.29,0.53,0,0.964,0.278,0.22,0,0.321,0.364,0.45,0,0.912,0.434,,,,0.296,0.41,0,0.732,0.333,,,
63849,20090809,-86.23,37.25,0.299,0.32,0,0.381,0.288,0.5,0,0.923,0.276,0.2,0,0.214,0.362,0.46,0,0.923,0.434,,,,0.293,0.38,0,0.589,0.332,,,
63849,20090810,-86.23,37.25,0.295,0.29,0,0.292,0.284,0.47,0,0.78,0.274,0.17,0,0.167,0.361,0.47,0,0.907,0.434,,,,0.29,0.35,0,0.446,0.33,,,
63849,20090811,-86.23,37.25,0.293,0.26,0,0.292,0.281,0.44,0,0.637,0.272,0.15,0,0.167,0.358,0.47,0,0.833,0.434,,,,0.287,0.33,0,0.405,0.328,,,
63849,20090812,-86.23,37.25,0.287,0.21,0,0.202,0.276,0.39,0,0.53,0.269,0.13,0,0.125,0.355,0.53,0,1,0.434,,,,0.282,0.28,0,0.315,0.324,,,
63849,20090813,-86.23,37.25,0.28,0.15,0,0.06,0.269,0.33,0,0.387,0.265,0.09,0,0.006,0.35,,,,0.434,,,,0.275,0.22,0,0.173,0.32,,,
63849,20090814,-86.23,37.25,0.274,0.09,0,0,0.263,0.27,0,0.244,0.26,0.06,0,0,0.345,,,,0.434,,,,0.268,0.17,0,0.03,0.315,,,
63849,20090815,-86.23,37.25,0.269,0.05,0,0,0.256,0.21,0,0.101,0.256,0.03,0,0,0.341,,,,0.435,,,,0.262,0.12,0,0,0.311,,,
63849,20090816,-86.23,37.25,0.264,0.01,0,0,0.249,0.15,0,0,0.252,0.01,0,0,0.338,,,,0.435,,,,0.256,0.07,0,0,0.307,,,
63849,20090817,-86.23,37.25,0.258,-0.03,0,0,0.243,0.1,0,0,0.247,-0.01,0,0,0.334,,,,0.435,,,,0.251,0.03,0,0,0.303,,,
63849,20090818,-86.23,37.25,0.253,-0.08,0,0,0.237,0.05,0,0,0.243,-0.04,0,0,0.331,,,,0.434,,,,0.245,-0.01,0,0,0.3,,,
63849,20090819,-86.23,37.25,0.247,-0.12,0,0,0.23,-0.01,0,0,0.238,-0.06,0,0,0.329,,,,0.434,,,,0.239,-0.06,0,0,0.296,,,
63849,20090820,-86.23,37.25,0.242,-0.17,0,0,0.223,-0.06,0,0,0.234,-0.08,0,0,0.327,,,,0.433,,,,0.232,-0.11,0,0,0.292,,,
63849,20090821,-86.23,37.25,0.24,-0.18,0,0.036,0.218,-0.09,0,0,0.23,-0.11,0,0,0.326,,,,0.433,,,,0.229,-0.14,0,0.006,0.289,,,
63849,20090822,-86.23,37.25,0.241,-0.16,0,0.036,0.218,-0.09,0,0,0.228,-0.11,0,0,0.325,,,,0.432,,,,0.229,-0.12,0,0.006,0.289,,,
63849,20090823,-86.23,37.25,0.241,-0.15,0,0.036,0.217,-0.09,0,0,0.226,-0.12,0,0,0.324,,,,0.431,,,,0.229,-0.12,0,0.006,0.288,,,
63849,20090824,-86.23,37.25,0.241,-0.14,0,0.036,0.216,-0.09,0,0,0.225,-0.12,0,0,0.323,,,,0.43,,,,0.229,-0.11,0,0.006,0.287,,,
63849,20090825,-86.23,37.25,0.242,-0.13,0,0.036,0.216,-0.09,0,0,0.224,-0.12,0,0,0.322,,,,0.429,,,,0.229,-0.11,0,0.006,0.287,,,
63849,20090826,-86.23,37.25,0.241,-0.13,0,0.036,0.215,-0.1,0,0,0.223,-0.12,0,0,0.321,,,,0.429,,,,0.228,-0.11,0,0.006,0.286,,,
63849,20090827,-86.23,37.25,0.24,-0.13,0,0.036,0.213,-0.1,0,0,0.222,-0.12,0,0,0.321,,,,0.428,,,,0.226,-0.12,0,0.006,0.285,,,
63849,20090828,-86.23,37.25,0.235,-0.18,0.083,0,0.21,-0.14,0.006,0,0.22,-0.13,0,0,0.32,,,,0.427,,,,0.222,-0.15,0.071,0,0.282,,,
63849,20090829,-86.23,37.25,0.227,-0.25,0.226,0,0.203,-0.2,0.137,0,0.217,-0.16,0,0,0.319,,,,0.426,,,,0.215,-0.22,0.214,0,0.278,,,
63849,20090830,-86.23,37.25,0.221,-0.31,0.369,0,0.197,-0.26,0.28,0,0.214,-0.18,0.036,0,0.319,,,,0.425,,,,0.209,-0.28,0.357,0,0.275,,,
63849,20090831,-86.23,37.25,0.214,-0.37,0.512,0,0.191,-0.31,0.423,0,0.21,-0.22,0.179,0,0.318,,,,0.424,,,,0.202,-0.34,0.5,0,0.271,,,
63849,20090901,-86.23,37.25,0.207,-0.43,0.655,0,0.184,-0.37,0.565,0,0.207,-0.25,0.321,0,0.318,,,,0.423,,,,0.196,-0.4,0.643,0,0.268,,,
63849,20090902,-86.23,37.25,0.201,-0.5,0.798,0,0.178,-0.43,0.708,0,0.203,-0.29,0.464,0,0.317,,,,0.422,,,,0.19,-0.47,0.786,0,0.264,,,
63849,20090903,-86.23,37.25,0.196,-0.54,0.935,0.006,0.174,-0.47,0.845,0,0.2,-0.33,0.601,0,0.316,,,,0.421,,,,0.185,-0.51,0.923,0.006,0.261,,,
63849,20090904,-86.23,37.25,0.204,-0.44,0.851,0.048,0.182,-0.38,0.839,0.036,0.204,-0.28,0.601,0,0.316,,,,0.421,,,,0.193,-0.41,0.851,0.048,0.265,,,
63849,20090905,-86.23,37.25,0.21,-0.37,0.708,0.048,0.187,-0.32,0.708,0.036,0.207,-0.23,0.601,0,0.316,,,,0.421,,,,0.198,-0.35,0.708,0.048,0.268,,,
63849,20090906,-86.23,37.25,0.214,-0.32,0.565,0.048,0.191,-0.26,0.565,0.036,0.21,-0.19,0.565,0,0.316,,,,0.42,,,,0.203,-0.29,0.565,0.048,0.27,,,
63849,20090907,-86.23,37.25,0.219,-0.26,0.423,0.048,0.195,-0.21,0.423,0.036,0.212,-0.15,0.423,0,0.316,,,,0.42,,,,0.207,-0.23,0.423,0.048,0.273,,,
63849,20090908,-86.23,37.25,0.23,-0.13,0.28,0.083,0.204,-0.11,0.28,0.042,0.216,-0.09,0.28,0,0.317,,,,0.42,,,,0.217,-0.12,0.28,0.077,0.277,,,
63849,20090909,-86.23,37.25,0.239,-0.03,0.137,0.083,0.212,-0.02,0.137,0.042,0.22,-0.02,0.137,0,0.317,,,,0.42,,,,0.225,-0.02,0.137,0.077,0.282,,,
63849,20090910,-86.23,37.25,0.246,0.06,0,0.077,0.219,0.06,0,0.042,0.225,0.04,0,0,0.317,,,,0.42,,,,0.232,0.07,0,0.071,0.285,,,
63849,20090911,-86.23,37.25,0.239,-0.01,0,0.036,0.213,0,0,0.006,0.222,0.02,0,0,0.317,,,,0.419,,,,0.226,0.01,0,0.03,0.282,,,
63849,20090912,-86.23,37.25,0.235,-0.04,0,0.036,0.209,-0.03,0,0.006,0.22,0,0,0,0.316,,,,0.419,,,,0.222,-0.02,0,0.03,0.28,,,
63849,20090913,-86.23,37.25,0.232,-0.06,0,0.036,0.207,-0.06,0,0.006,0.218,-0.02,0,0,0.316,,,,0.418,,,,0.219,-0.05,0,0.03,0.278,,,
63849,20090914,-86.23,37.25,0.229,-0.09,0.065,0.036,0.204,-0.08,0,0.006,0.216,-0.05,0,0,0.316,,,,0.418,,,,0.217,-0.08,0.054,0.03,0.277,,,
63849,20090915,-86.23,37.25,0.22,-0.19,0.208,0,0.197,-0.15,0.089,0,0.213,-0.1,0,0,0.316,,,,0.418,,,,0.208,-0.16,0.196,0,0.273,,,
63849,20090916,-86.23,37.25,0.214,-0.26,0.351,0,0.191,-0.22,0.232,0,0.21,-0.15,0,0,0.316,,,,0.418,,,,0.202,-0.23,0.339,0,0.269,,,
63849,20090917,-86.23,37.25,0.208,-0.32,0.494,0,0.186,-0.28,0.375,0,0.206,-0.21,0.077,0,0.315,,,,0.417,,,,0.197,-0.29,0.482,0,0.267,,,
63849,20090918,-86.23,37.25,0.203,-0.37,0.637,0,0.181,-0.33,0.518,0,0.203,-0.27,0.22,0,0.315,,,,0.417,,,,0.192,-0.35,0.625,0,0.264,,,
63849,20090919,-86.23,37.25,0.198,-0.42,0.78,0,0.177,-0.38,0.661,0,0.2,-0.33,0.363,0,0.315,,,,0.417,,,,0.187,-0.4,0.768,0,0.261,,,
63849,20090920,-86.23,37.25,0.197,-0.43,0.893,0,0.174,-0.42,0.774,0,0.198,-0.38,0.506,0,0.314,,,,0.416,,,,0.185,-0.43,0.881,0,0.26,,,
63849,20090921,-86.23,37.25,0.2,-0.38,0.827,0,0.175,-0.41,0.774,0,0.196,-0.42,0.649,0,0.314,,,,0.415,,,,0.188,-0.39,0.827,0,0.26,,,
63849,20090922,-86.23,37.25,0.205,-0.33,0.685,0,0.177,-0.39,0.685,0,0.195,-0.45,0.792,0,0.314,,,,0.414,,,,0.191,-0.35,0.685,0,0.261,,,
63849,20090923,-86.23,37.25,0.214,-0.23,0.542,0.054,0.183,-0.32,0.542,0.048,0.195,-0.46,0.893,0,0.314,,,,0.413,,,,0.198,-0.27,0.542,0.048,0.264,,,
63849,20090924,-86.23,37.25,0.227,-0.09,0.399,0.155,0.196,-0.19,0.399,0.131,0.202,-0.38,0.815,0,0.314,,,,0.412,,,,0.211,-0.13,0.399,0.137,0.27,,,
63849,20090925,-86.23,37.25,0.239,0.03,0.256,0.208,0.206,-0.08,0.256,0.131,0.208,-0.31,0.673,0,0.314,,,,0.411,,,,0.223,-0.01,0.256,0.185,0.276,,,
63849,20090926,-86.23,37.25,0.251,0.15,0.113,0.208,0.217,0.04,0.113,0.131,0.215,-0.22,0.53,0,0.314,,,,0.411,,,,0.234,0.11,0.113,0.185,0.281,,,
63849,20090927,-86.23,37.25,0.263,0.27,0,0.304,0.23,0.17,0,0.196,0.223,-0.12,0.387,0.024,0.314,,,,0.41,,,,0.247,0.23,0,0.28,0.288,,,
63849,20090928,-86.23,37.25,0.269,0.31,0,0.351,0.24,0.27,0,0.321,0.231,-0.01,0.244,0.06,0.314,,,,0.409,,,,0.255,0.3,0,0.357,0.293,,,
63849,20090929,-86.23,37.25,0.274,0.34,0,0.351,0.248,0.35,0,0.321,0.239,0.08,0.101,0.06,0.315,,,,0.409,,,,0.261,0.35,0,0.357,0.297,,,
63849,20090930,-86.23,37.25,0.272,0.32,0,0.298,0.251,0.37,0,0.274,0.245,0.15,0,0.06,0.315,,,,0.409,,,,0.262,0.35,0,0.31,0.298,,,
63849,20091001,-86.23,37.25,0.267,0.25,0,0.196,0.248,0.33,0,0.19,0.245,0.13,0,0.06,0.316,,,,0.409,,,,0.257,0.29,0,0.22,0.297,,,
63849,20091002,-86.23,37.25,0.265,0.21,0,0.161,0.248,0.31,0,0.208,0.245,0.11,0,0.06,0.316,,,,0.409,,,,0.256,0.26,0,0.19,0.296,,,
63849,20091003,-86.23,37.25,0.27,0.24,0,0.268,0.254,0.35,0,0.351,0.248,0.14,0,0.113,0.316,,,,0.408,,,,0.262,0.3,0,0.333,0.299,,,
63849,20091004,-86.23,37.25,0.268,0.2,0,0.173,0.256,0.34,0,0.363,0.251,0.15,0,0.089,0.317,,,,0.408,,,,0.262,0.28,0,0.292,0.3,,,
63849,20091005,-86.23,37.25,0.267,0.17,0,0.125,0.256,0.32,0,0.244,0.252,0.14,0,0.054,0.317,,,,0.408,,,,0.262,0.25,0,0.214,0.3,,,
63849,20091006,-86.23,37.25,0.269,0.16,0,0.125,0.259,0.31,0,0.244,0.253,0.14,0,0.054,0.318,,,,0.408,,,,0.264,0.24,0,0.214,0.301,,,
63849,20091007,-86.23,37.25,0.28,0.23,0,0.244,0.27,0.4,0,0.363,0.26,0.21,0,0.173,0.323,0.75,0,0.083,0.411,,,,0.275,0.32,0,0.333,0.309,,,
63849,20091008,-86.23,37.25,0.289,0.29,0,0.369,0.28,0.47,0,0.506,0.267,0.27,0,0.315,0.329,0.72,0,0.03,0.415,,,,0.285,0.39,0,0.476,0.316,,,
63849,20091009,-86.23,37.25,0.299,0.36,0,0.429,0.291,0.56,0,0.631,0.274,0.36,0,0.458,0.335,0.72,0,0.089,0.419,,,,0.295,0.47,0,0.601,0.324,,,
63849,20091010,-86.23,37.25,0.309,0.42,0,0.464,0.299,0.63,0,0.631,0.282,0.45,0,0.548,0.343,0.78,0,0.363,0.424,,,,0.304,0.53,0,0.601,0.331,,,
63849,20091011,-86.23,37.25,0.315,0.46,0,0.607,0.305,0.68,0,0.696,0.286,0.5,0,0.69,0.351,0.8,0,0.51,0.428,,,,0.31,0.56,0,0.69,0.337,,,
63849,20091012,-86.23,37.25,0.321,0.49,0,0.726,0.311,0.73,0,0.833,0.29,0.56,0,0.833,0.358,0.81,0,0.602,0.433,,,,0.316,0.59,0,0.833,0.342,,,
63849,20091013,-86.23,37.25,0.325,0.52,0,0.726,0.316,0.77,0,0.976,0.294,0.61,0,0.976,0.365,0.81,0,0.664,0.437,,,,0.321,0.62,0,0.976,0.348,,,
63849,20091014,-86.23,37.25,0.322,0.47,0,0.613,0.313,0.72,0,1,0.293,0.61,0,1,0.366,0.8,0,0.683,0.439,,,,0.317,0.57,0,0.994,0.346,,,
63849,20091015,-86.23,37.25,0.325,0.5,0,0.631,0.316,0.73,0,1,0.295,0.65,0,1,0.367,0.81,0,0.772,0.44,,,,0.321,0.59,0,0.994,0.348,,,
63849,20091016,-86.23,37.25,0.327,0.5,0,0.696,0.318,0.73,0,1,0.296,0.69,0,1,0.369,0.84,0,0.887,0.44,,,,0.323,0.59,0,0.994,0.35,,,
63849,20091017,-86.23,37.25,0.322,0.43,0,0.696,0.314,0.66,0,1,0.293,0.66,0,1,0.369,0.84,0,0.887,0.44,,,,0.318,0.52,0,0.994,0.348,,,
63849,20091018,-86.23,37.25,0.322,0.42,0,0.625,0.314,0.63,0,1,0.293,0.66,0,1,0.37,0.84,0,0.887,0.441,,,,0.318,0.5,0,0.994,0.348,,,
63849,20091019,-86.23,37.25,0.321,0.4,0,0.506,0.315,0.6,0,1,0.293,0.64,0,1,0.372,0.84,0,0.887,0.441,,,,0.318,0.48,0,0.976,0.348,,,
63849,20091020,-86.23,37.25,0.321,0.38,0,0.506,0.315,0.58,0,1,0.293,0.63,0,1,0.373,0.84,0,0.887,0.441,,,,0.318,0.46,0,0.833,0.349,,,
63849,20091021,-86.23,37.25,0.32,0.36,0,0.5,0.315,0.54,0,0.887,0.293,0.59,0,0.863,0.374,0.85,0,0.905,0.441,,,,0.318,0.44,0,0.696,0.349,,,
63849,20091022,-86.23,37.25,0.314,0.28,0,0.357,0.311,0.46,0,0.744,0.29,0.5,0,0.72,0.375,0.85,0,0.821,0.441,,,,0.312,0.36,0,0.554,0.346,,,
63849,20091023,-86.23,37.25,0.308,0.2,0,0.226,0.306,0.38,0,0.613,0.287,0.39,0,0.583,0.373,0.81,0,0.679,0.441,,,,0.307,0.28,0,0.423,0.343,,,
63849,20091024,-86.23,37.25,0.311,0.22,0,0.202,0.308,0.38,0,0.613,0.288,0.36,0,0.571,0.373,0.8,0,0.679,0.441,,,,0.31,0.28,0,0.423,0.344,,,
63849,20091025,-86.23,37.25,0.311,0.2,0,0.131,0.308,0.35,0,0.613,0.288,0.32,0,0.429,0.373,0.79,0,0.679,0.441,,,,0.31,0.26,0,0.298,0.344,,,
63849,20091026,-86.23,37.25,0.311,0.18,0,0.131,0.308,0.33,0,0.518,0.287,0.27,0,0.286,0.373,0.78,0,0.679,0.441,,,,0.31,0.23,0,0.173,0.344,,,
63849,20091027,-86.23,37.25,0.311,0.16,0,0.131,0.309,0.31,0,0.375,0.287,0.23,0,0.143,0.373,0.78,0,0.679,0.442,,,,0.31,0.21,0,0.173,0.344,,,
63849,20091028,-86.23,37.25,0.318,0.21,0,0.232,0.313,0.33,0,0.44,0.29,0.25,0,0.202,0.374,0.79,0,0.714,0.442,,,,0.315,0.25,0,0.274,0.347,,,
63849,20091029,-86.23,37.25,0.322,0.24,0,0.25,0.317,0.35,0,0.565,0.293,0.27,0,0.268,0.376,0.82,0,0.839,0.442,,,,0.32,0.27,0,0.363,0.35,,,
63849,20091030,-86.23,37.25,0.324,0.25,0,0.24,0.319,0.36,0,0.557,0.295,0.29,0,0.263,0.379,0.86,0,0.982,0.443,,,,0.322,0.28,0,0.353,0.352,,,
63849,20091031,-86.23,37.25,0.324,0.24,0,0.192,0.319,0.34,0,0.479,0.295,0.28,0,0.192,0.38,0.87,0,0.982,0.443,,,,0.321,0.26,0,0.275,0.352,,,
63849,20091101,-86.23,37.25,0.328,0.26,0,0.293,0.321,0.35,0,0.479,0.297,0.3,0,0.335,0.383,0.9,0,0.982,0.444,,,,0.325,0.29,0,0.389,0.355,,,
63849,20091102,-86.23,37.25,0.33,0.27,0,0.293,0.323,0.36,0,0.545,0.298,0.31,0,0.383,0.385,0.93,0,0.982,0.444,,,,0.326,0.29,0,0.389,0.356,,,
63849,20091103,-86.23,37.25,0.331,0.28,0,0.293,0.324,0.36,0,0.545,0.298,0.31,0,0.383,0.387,0.96,0,0.982,0.444,,,,0.327,0.29,0,0.389,0.357,,,
63849,20091104,-86.23,37.25,0.326,0.21,0,0.192,0.32,0.31,0,0.449,0.296,0.27,0,0.317,0.387,0.96,0,1,0.445,,,,0.323,0.23,0,0.287,0.355,,,
63849,20091105,-86.23,37.25,0.322,0.16,0,0.174,0.318,0.28,0,0.323,0.294,0.23,0,0.251,0.386,0.94,0,1,0.445,,,,0.32,0.19,0,0.198,0.353,,,
63849,20091106,-86.23,37.25,0.319,0.12,0,0.173,0.316,0.26,0,0.321,0.292,0.2,0,0.25,0.384,0.92,0,1,0.445,,,,0.317,0.15,0,0.196,0.351,,,
63849,20091107,-86.23,37.25,0.311,0.02,0,0.101,0.311,0.2,0,0.256,0.288,0.13,0,0.19,0.381,0.89,0,1,0.445,,,,0.311,0.07,0,0.131,0.347,,,
63849,20091108,-86.23,37.25,0.304,-0.08,0,0,0.304,0.13,0,0.113,0.284,0.06,0,0.048,0.377,0.85,0,1,0.444,,,,0.304,-0.02,0,0,0.343,,,
63849,20091109,-86.23,37.25,0.299,-0.15,0,0,0.3,0.07,0,0,0.281,0,0,0,0.373,0.79,0,0.893,0.444,,,,0.3,-0.08,0,0,0.34,,,
63849,20091110,-86.23,37.25,0.296,-0.2,0,0,0.297,0.03,0,0,0.279,-0.05,0,0,0.368,0.73,0,0.75,0.444,,,,0.297,-0.13,0,0,0.337,,,
63849,20091111,-86.23,37.25,0.294,-0.25,0,0,0.294,-0.01,0,0,0.277,-0.09,0,0,0.364,0.67,0,0.607,0.444,,,,0.294,-0.18,0,0,0.334,,,
63849,20091112,-86.23,37.25,0.292,-0.3,0.006,0,0.292,-0.05,0,0,0.275,-0.13,0,0,0.36,0.62,0,0.464,0.444,,,,0.292,-0.22,0,0,0.333,,,
63849,20091113,-86.23,37.25,0.29,-0.34,0.077,0,0.29,-0.09,0,0,0.273,-0.18,0,0,0.357,0.56,0,0.321,0.444,,,,0.29,-0.27,0.006,0,0.331,,,
63849,20091114,-86.23,37.25,0.288,-0.39,0.22,0,0.287,-0.14,0,0,0.272,-0.22,0,0,0.354,0.5,0,0.179,0.444,,,,0.288,-0.32,0.119,0,0.329,,,
63849,20091115,-86.23,37.25,0.287,-0.43,0.363,0,0.286,-0.19,0.048,0,0.27,-0.26,0,0,0.35,0.43,0,0.036,0.444,,,,0.286,-0.37,0.262,0,0.327,,,
63849,20091116,-86.23,37.25,0.286,-0.47,0.506,0,0.284,-0.24,0.185,0,0.269,-0.3,0,0,0.347,0.37,0,0,0.444,,,,0.285,-0.42,0.405,0,0.326,,,
63849,20091117,-86.23,37.25,0.285,-0.49,0.637,0,0.282,-0.29,0.327,0,0.268,-0.34,0.006,0,0.344,0.31,0,0,0.444,,,,0.284,-0.46,0.536,0,0.325,,,
63849,20091118,-86.23,37.25,0.29,-0.43,0.637,0.012,0.286,-0.25,0.327,0.006,0.269,-0.34,0.006,0,0.342,0.25,0,0,0.444,,,,0.288,-0.41,0.536,0.012,0.326,,,
63849,20091119,-86.23,37.25,0.293,-0.4,0.631,0.012,0.288,-0.22,0.327,0.006,0.27,-0.33,0.006,0,0.34,0.2,0,0,0.444,,,,0.291,-0.38,0.536,0.012,0.327,,,
63849,20091120,-86.23,37.25,0.297,-0.37,0.56,0.012,0.29,-0.21,0.327,0.006,0.272,-0.33,0.006,0,0.338,0.15,0,0,0.444,,,,0.294,-0.35,0.53,0.012,0.328,,,
63849,20091121,-86.23,37.25,0.3,-0.34,0.417,0.012,0.292,-0.19,0.327,0.006,0.273,-0.32,0.012,0,0.337,0.1,0,0,0.444,,,,0.296,-0.32,0.417,0.012,0.329,,,
63849,20091122,-86.23,37.25,0.303,-0.32,0.333,0.012,0.294,-0.17,0.28,0.006,0.274,-0.32,0.095,0,0.336,0.06,0,0,0.444,,,,0.298,-0.3,0.298,0.012,0.33,,,
63849,20091123,-86.23,37.25,0.305,-0.3,0.196,0.012,0.296,-0.15,0.143,0.006,0.276,-0.32,0.238,0,0.335,0.03,0,0,0.444,,,,0.301,-0.27,0.155,0.012,0.331,,,
63849,20091124,-86.23,37.25,0.308,-0.28,0.149,0.012,0.299,-0.12,0,0.006,0.277,-0.31,0.375,0,0.335,0.01,0,0,0.445,,,,0.303,-0.24,0.149,0.012,0.333,,,
63849,20091125,-86.23,37.25,0.304,-0.35,0.292,0,0.296,-0.19,0.012,0,0.276,-0.35,0.518,0,0.335,-0.01,0,0,0.445,,,,0.3,-0.31,0.292,0,0.331,,,
63849,20091126,-86.23,37.25,0.303,-0.39,0.435,0,0.294,-0.25,0.137,0,0.275,-0.39,0.661,0,0.334,-0.05,0,0,0.445,,,,0.298,-0.36,0.435,0,0.33,,,
63849,20091127,-86.23,37.25,0.302,-0.43,0.577,0,0.292,-0.3,0.28,0,0.274,-0.44,0.804,0,0.333,-0.09,0,0,0.445,,,,0.297,-0.41,0.577,0,0.329,,,
63849,20091128,-86.23,37.25,0.3,-0.47,0.72,0,0.291,-0.35,0.423,0,0.273,-0.49,0.94,0,0.333,-0.14,0.083,0,0.445,,,,0.296,-0.45,0.72,0,0.328,,,
63849,20091129,-86.23,37.25,0.299,-0.5,0.804,0,0.29,-0.4,0.565,0,0.272,-0.54,1,0,0.331,-0.21,0.226,0,0.445,,,,0.295,-0.49,0.839,0,0.328,,,
63849,20091130,-86.23,37.25,0.301,-0.49,0.905,0.03,0.29,-0.42,0.679,0.024,0.271,-0.58,0.994,0,0.331,-0.27,0.369,0,0.445,,,,0.296,-0.49,0.946,0.024,0.328,,,
63849,20091201,-86.23,37.25,0.306,-0.41,0.821,0.048,0.294,-0.35,0.679,0.036,0.274,-0.54,0.863,0,0.33,-0.33,0.512,0,0.445,,,,0.3,-0.4,0.821,0.054,0.33,,,
63849,20091202,-86.23,37.25,0.309,-0.38,0.679,0.048,0.297,-0.31,0.667,0.036,0.276,-0.52,0.857,0,0.331,-0.37,0.655,0,0.445,,,,0.303,-0.35,0.679,0.054,0.331,,,
63849,20091203,-86.23,37.25,0.318,-0.24,0.536,0.125,0.305,-0.13,0.542,0.155,0.28,-0.41,0.726,0.018,0.334,-0.37,0.679,0,0.445,,,,0.312,-0.18,0.536,0.173,0.337,,,
63849,20091204,-86.23,37.25,0.324,-0.14,0.393,0.125,0.31,-0.03,0.399,0.155,0.284,-0.32,0.583,0.018,0.338,-0.34,0.679,0,0.446,,,,0.317,-0.07,0.393,0.173,0.34,,,
63849,20091205,-86.23,37.25,0.33,-0.05,0.25,0.125,0.314,0.06,0.256,0.155,0.287,-0.25,0.44,0.018,0.343,-0.31,0.595,0,0.446,,,,0.322,0.03,0.25,0.173,0.344,,,
63849,20091206,-86.23,37.25,0.335,0.02,0.107,0.125,0.318,0.15,0.113,0.155,0.29,-0.18,0.375,0.018,0.347,-0.26,0.452,0,0.446,,,,0.326,0.11,0.107,0.173,0.347,,,
63849,20091207,-86.23,37.25,0.336,0.05,0,0.095,0.32,0.19,0,0.131,0.292,-0.13,0.381,0.018,0.352,-0.22,0.31,0,0.447,,,,0.328,0.15,0,0.149,0.349,,,
63849,20091208,-86.23,37.25,0.335,0.02,0,0.077,0.319,0.16,0,0.119,0.292,-0.14,0.512,0.018,0.356,-0.17,0.167,0,0.447,,,,0.327,0.12,0,0.119,0.35,,,
63849,20091209,-86.23,37.25,0.344,0.16,0,0.19,0.324,0.28,0,0.226,0.295,-0.05,0.411,0.083,0.36,-0.12,0.024,0,0.447,,,,0.334,0.27,0,0.226,0.354,,,
63849,20091210,-86.23,37.25,0.342,0.12,0,0.131,0.322,0.22,0,0.155,0.295,-0.07,0.399,0.065,0.362,-0.11,0,0,0.447,,,,0.332,0.21,0,0.143,0.354,,,
63849,20091211,-86.23,37.25,0.342,0.09,0,0.131,0.321,0.2,0,0.155,0.294,-0.09,0.399,0.065,0.362,-0.1,0,0,0.447,,,,0.331,0.19,0,0.143,0.353,,,
63849,20091212,-86.23,37.25,0.34,0.05,0,0.131,0.321,0.19,0,0.155,0.294,-0.1,0.47,0.065,0.363,-0.1,0,0,0.447,,,,0.331,0.16,0,0.143,0.353,,,
63849,20091213,-86.23,37.25,0.34,0.03,0,0.143,0.322,0.19,0,0.167,0.294,-0.1,0.524,0.065,0.364,-0.1,0,0,0.447,,,,0.331,0.15,0,0.155,0.353,,,
63849,20091214,-86.23,37.25,0.344,0.08,0,0.161,0.325,0.26,0,0.226,0.296,-0.04,0.381,0.065,0.365,-0.08,0,0,0.447,,,,0.335,0.22,0,0.19,0.356,,,
63849,20091215,-86.23,37.25,0.345,0.08,0,0.161,0.326,0.29,0,0.226,0.297,-0.02,0.25,0.065,0.367,-0.06,0,0,0.447,,,,0.336,0.22,0,0.19,0.356,,,
63849,20091216,-86.23,37.25,0.338,-0.06,0,0.048,0.322,0.17,0,0.119,0.295,-0.1,0.357,0,0.367,-0.05,0,0,0.447,,,,0.33,0.08,0,0.083,0.354,,,
63849,20091217,-86.23,37.25,0.336,-0.1,0,0.03,0.32,0.1,0,0.071,0.293,-0.15,0.5,0,0.368,-0.05,0,0,0.447,,,,0.328,0.02,0,0.048,0.353,,,
63849,20091218,-86.23,37.25,0.335,-0.11,0,0.03,0.319,0.07,0,0.071,0.292,-0.19,0.643,0,0.368,-0.06,0.03,0,0.447,,,,0.327,-0.01,0,0.048,0.352,,,
63849,20091219,-86.23,37.25,0.338,-0.08,0,0.03,0.318,0.06,0,0.071,0.291,-0.21,0.714,0,0.368,-0.08,0.137,0,0.447,,,,0.328,0.01,0,0.048,0.352,,,
63849,20091220,-86.23,37.25,0.342,0,0,0.071,0.32,0.11,0,0.101,0.293,-0.19,0.595,0,0.368,-0.08,0.167,0,0.447,,,,0.331,0.08,0,0.107,0.354,,,
63849,20091221,-86.23,37.25,0.342,0,0,0.054,0.319,0.07,0.006,0.048,0.291,-0.22,0.613,0,0.369,-0.08,0.167,0,0.448,,,,0.33,0.06,0,0.077,0.354,,,
63849,20091222,-86.23,37.25,0.342,0.01,0,0.054,0.318,0.06,0.006,0.048,0.291,-0.24,0.738,0,0.369,-0.07,0.167,0,0.448,,,,0.33,0.05,0,0.077,0.354,,,
63849,20091223,-86.23,37.25,0.343,0.02,0,0.054,0.318,0.05,0.006,0.048,0.291,-0.24,0.738,0,0.369,-0.07,0.167,0,0.448,,,,0.33,0.05,0,0.077,0.354,,,
63849,20091224,-86.23,37.25,0.344,0.04,0,0.054,0.317,0.05,0.006,0.048,0.291,-0.25,0.738,0,0.369,-0.07,0.167,0,0.448,,,,0.331,0.06,0,0.077,0.354,,,
63849,20091225,-86.23,37.25,0.346,0.09,0,0.089,0.318,0.08,0.006,0.077,0.291,-0.23,0.708,0,0.369,-0.07,0.143,0,0.448,,,,0.332,0.1,0,0.113,0.355,,,
63849,20091226,-86.23,37.25,0.35,0.16,0,0.22,0.321,0.15,0.006,0.167,0.293,-0.18,0.565,0,0.371,-0.02,0.036,0.036,0.449,,,,0.335,0.17,0,0.232,0.357,,,
63849,20091227,-86.23,37.25,0.349,0.14,0,0.167,0.319,0.12,0.006,0.125,0.293,-0.18,0.554,0,0.372,0.02,0.006,0.095,0.449,,,,0.334,0.14,0,0.161,0.356,,,
63849,20091228,-86.23,37.25,0.349,0.14,0,0.167,0.318,0.1,0,0.119,0.292,-0.19,0.56,0,0.372,0.03,0.006,0.125,0.449,,,,0.333,0.13,0,0.155,0.356,,,
63849,20091229,-86.23,37.25,0.349,0.14,0,0.167,0.317,0.08,0,0.119,0.291,-0.2,0.565,0,0.372,0.04,0.006,0.137,0.449,,,,0.333,0.12,0,0.155,0.356,,,
63849,20091230,-86.23,37.25,0.349,0.14,0,0.167,0.316,0.07,0,0.119,0.291,-0.21,0.565,0,0.372,0.04,0.006,0.137,0.449,,,,0.333,0.11,0,0.155,0.356,,,
63849,20091231,-86.23,37.25,0.35,0.14,0,0.167,0.316,0.06,0,0.119,0.291,-0.21,0.565,0,0.372,0.04,0.006,0.137,0.449,,,,0.333,0.1,0,0.155,0.355,,,
63849,20100101,-86.23,37.25,0.351,0.16,0,0.131,0.315,0.04,0.006,0.089,0.291,-0.21,0.583,0,0.372,0.05,0,0.137,0.449,,,,0.333,0.1,0,0.119,0.356,,,
63849,20100102,-86.23,37.25,0.349,0.11,0,0,0.311,-0.04,0.006,0,0.289,-0.25,0.708,0,0.372,0.03,0,0.101,0.45,,,,0.33,0.03,0,0,0.354,,,